Date String (YYYY-MM-DD hh:mm:ss) UTC,Instrument flags,Ambient pressure (hPa),Sample flow (lpm),Bypass flow (lpm),Sample temperature (°C),Ambient temperature (°C),ASC tube jacket temperature (°C),LED temperature (°C),Box temperature (°C),Sample RH (%),Span deviation,Mass concentration (μg/m³),Mass concentration (μg/m³),Mass concentration (μg/m³)
DateTimeUTC,F1_M11,P_M11,Q1_M11,Q2_M11,T1_M11,T2_M11,T3_M11,T4_M11,T5_M11,U1_M11,ZSPAN_M11,X0_M11,X2_M11,X1_M11
2021-11-15 05:00:00,,0824.5,5.00,0.00,26.5,25.5,00.0,35.6,28.4,14.8,0000.0,0012.53,0002.79,0000.62
2021-11-15 05:01:00,,0824.6,5.00,0.00,26.5,25.5,00.0,35.6,28.4,14.8,0000.0,0011.82,0002.77,0000.61
2021-11-15 05:02:00,,0824.7,5.00,0.00,26.5,25.5,00.0,35.6,28.4,14.7,0000.0,0011.11,0002.68,0000.61
2021-11-15 05:03:00,,0824.7,5.00,0.00,26.5,25.5,00.0,35.6,28.4,14.8,0000.0,0010.23,0002.58,0000.59
2021-11-15 05:04:00,,0824.5,5.01,0.00,26.5,25.5,00.0,35.6,28.3,14.8,0000.0,0010.13,0002.42,0000.58
2021-11-15 05:05:00,,0824.6,5.00,0.00,26.5,25.5,00.0,35.6,28.3,14.8,0000.0,0009.67,0002.28,0000.56
2021-11-15 05:06:00,,0824.5,5.00,0.00,26.5,25.5,00.0,35.6,28.4,14.8,0000.0,0008.73,0002.22,0000.55
2021-11-15 05:07:00,,0824.5,4.99,0.00,26.5,25.5,00.0,35.5,28.4,14.8,0000.0,0008.03,0002.11,0000.54
2021-11-15 05:08:00,,0824.4,4.99,0.00,26.5,25.5,00.0,35.5,28.4,14.7,0000.0,0007.66,0002.00,0000.53
2021-11-15 05:09:00,,0824.5,5.02,0.00,26.5,25.5,00.0,35.5,28.4,14.7,0000.0,0007.68,0001.96,0000.51
2021-11-15 05:10:00,,0824.4,4.99,0.00,26.5,25.5,00.0,35.5,28.3,14.7,0000.0,0007.47,0001.87,0000.50
2021-11-15 05:11:00,,0824.4,5.01,0.00,26.5,25.5,00.0,35.5,28.3,14.7,0000.0,0007.75,0001.74,0000.47
2021-11-15 05:12:00,,0824.4,5.00,0.00,26.5,25.5,00.0,35.5,28.3,14.8,0000.0,0008.18,0001.81,0000.46
2021-11-15 05:13:00,,0824.3,4.99,0.00,26.5,25.5,00.0,35.5,28.3,14.7,0000.0,0007.96,0001.79,0000.47
2021-11-15 05:14:00,,0824.4,5.00,0.00,26.5,25.5,00.0,35.5,28.4,14.7,0000.0,0007.85,0001.78,0000.46
2021-11-15 05:15:00,,0824.3,5.00,0.00,26.5,25.5,00.0,35.5,28.4,14.6,0000.0,0007.59,0001.79,0000.46
2021-11-15 05:16:00,,0824.5,5.00,0.00,26.5,25.4,00.0,35.5,28.3,14.6,0000.0,0007.55,0001.80,0000.48
2021-11-15 05:17:00,,0824.3,5.00,0.00,26.5,25.4,00.0,35.5,28.3,14.5,0000.0,0007.58,0001.82,0000.48
2021-11-15 05:18:00,,0824.3,4.99,0.00,26.5,25.4,00.0,35.5,28.3,14.6,0000.0,0007.65,0001.84,0000.49
2021-11-15 05:19:00,,0824.4,5.00,0.00,26.5,25.4,00.0,35.5,28.3,14.5,0000.0,0007.79,0001.92,0000.50
2021-11-15 05:20:00,,0824.5,5.00,0.00,26.5,25.4,00.0,35.5,28.3,14.6,0000.0,0007.68,0001.99,0000.50
2021-11-15 05:21:00,,0824.4,5.01,0.00,26.5,25.4,00.0,35.5,28.3,14.6,0000.0,0007.13,0002.02,0000.50
2021-11-15 05:22:00,,0824.3,5.00,0.00,26.5,25.4,00.0,35.5,28.3,14.6,0000.0,0007.34,0001.96,0000.50
2021-11-15 05:23:00,,0824.3,4.99,0.00,26.5,25.4,00.0,35.5,28.3,14.5,0000.0,0007.74,0001.93,0000.50
2021-11-15 05:24:00,,0824.3,5.02,0.00,26.5,25.4,00.0,35.5,28.3,14.5,0000.0,0008.98,0002.00,0000.50
2021-11-15 05:25:00,,0824.3,5.01,0.00,26.5,25.4,00.0,35.5,28.3,14.4,0000.0,0009.18,0001.98,0000.51
2021-11-15 05:26:00,,0824.3,4.99,0.00,26.5,25.4,00.0,35.5,28.3,14.4,0000.0,0009.98,0002.13,0000.54
2021-11-15 05:27:00,,0824.3,4.98,0.00,26.5,25.4,00.0,35.5,28.3,14.4,0000.0,0010.52,0002.24,0000.53
2021-11-15 05:28:00,,0824.3,5.01,0.00,26.5,25.4,00.0,35.5,28.3,14.4,0000.0,0010.87,0002.29,0000.53
2021-11-15 05:29:00,,0824.3,5.00,0.00,26.5,25.4,00.0,35.5,28.3,14.5,0000.0,0011.49,0002.39,0000.53
2021-11-15 05:30:00,,0824.2,5.00,0.00,26.5,25.4,00.0,35.5,28.3,14.5,0000.0,0011.60,0002.41,0000.53
2021-11-15 05:31:00,,0824.3,5.00,0.00,26.5,25.4,00.0,35.5,28.3,14.5,0000.0,0012.33,0002.43,0000.54
2021-11-15 05:32:00,,0824.2,5.00,0.00,26.5,25.4,00.0,35.5,28.3,14.6,0000.0,0012.51,0002.51,0000.55
2021-11-15 05:33:00,,0824.3,5.01,0.00,26.5,25.4,00.0,35.5,28.3,14.6,0000.0,0012.68,0002.69,0000.58
2021-11-15 05:34:00,,0824.5,4.99,0.00,26.5,25.4,00.0,35.5,28.3,14.5,0000.0,0011.98,0002.70,0000.59
2021-11-15 05:35:00,,0824.3,5.00,0.00,26.5,25.4,00.0,35.5,28.3,14.6,0000.0,0011.01,0002.65,0000.59
2021-11-15 05:36:00,,0824.2,5.00,0.00,26.5,25.4,00.0,35.5,28.3,14.7,0000.0,0010.92,0002.69,0000.59
2021-11-15 05:37:00,,0824.2,4.99,0.00,26.4,25.4,00.0,35.5,28.3,14.7,0000.0,0010.86,0002.72,0000.59
2021-11-15 05:38:00,,0824.3,5.01,0.00,26.4,25.4,00.0,35.5,28.3,14.7,0000.0,0012.28,0002.72,0000.61
2021-11-15 05:39:00,,0824.5,4.99,0.00,26.4,25.4,00.0,35.5,28.3,14.7,0000.0,0013.54,0002.74,0000.62
2021-11-15 05:40:00,,0824.4,5.02,0.00,26.4,25.4,00.0,35.5,28.3,14.7,0000.0,0013.95,0002.69,0000.61
2021-11-15 05:41:00,,0824.3,4.98,0.00,26.4,25.4,00.0,35.5,28.3,14.8,0000.0,0013.87,0002.62,0000.60
2021-11-15 05:42:00,,0824.4,5.01,0.00,26.4,25.4,00.0,35.5,28.3,14.8,0000.0,0013.23,0002.57,0000.60
2021-11-15 05:43:00,,0824.5,5.00,0.00,26.4,25.4,00.0,35.5,28.3,14.8,0000.0,0013.57,0002.46,0000.60
2021-11-15 05:44:00,,0824.6,5.00,0.00,26.4,25.4,00.0,35.5,28.3,14.8,0000.0,0013.01,0002.34,0000.57
2021-11-15 05:45:00,,0824.5,5.01,0.00,26.4,25.4,00.0,35.5,28.3,14.8,0000.0,0013.52,0002.28,0000.56
2021-11-15 05:46:00,,0824.6,5.00,0.00,26.4,25.4,00.0,35.4,28.2,14.8,0000.0,0013.56,0002.28,0000.54
2021-11-15 05:47:00,,0824.8,5.00,0.00,26.4,25.4,00.0,35.4,28.2,14.9,0000.0,0013.53,0002.25,0000.53
2021-11-15 05:48:00,,0824.9,5.02,0.00,26.4,25.4,00.0,35.4,28.2,14.9,0000.0,0012.65,0002.01,0000.50
2021-11-15 05:49:00,,0824.7,4.98,0.00,26.4,25.4,00.0,35.4,28.2,14.9,0000.0,0010.67,0001.82,0000.48
2021-11-15 05:50:00,,0824.8,5.01,0.00,26.4,25.4,00.0,35.4,28.2,14.9,0000.0,0008.96,0001.70,0000.46
2021-11-15 05:51:00,,0824.7,4.99,0.00,26.4,25.4,00.0,35.4,28.2,14.9,0000.0,0007.89,0001.59,0000.45
2021-11-15 05:52:00,,0824.9,4.99,0.00,26.4,25.4,00.0,35.4,28.2,15.0,0000.0,0007.72,0001.61,0000.46
2021-11-15 05:53:00,,0824.8,4.99,0.00,26.4,25.4,00.0,35.4,28.2,15.0,0000.0,0007.99,0001.59,0000.46
2021-11-15 05:54:00,,0824.8,5.01,0.00,26.4,25.4,00.0,35.4,28.2,15.0,0000.0,0007.92,0001.59,0000.46
2021-11-15 05:55:00,,0824.7,4.99,0.00,26.4,25.4,00.0,35.4,28.2,15.0,0000.0,0007.60,0001.51,0000.47
2021-11-15 05:56:00,,0824.8,5.00,0.00,26.4,25.4,00.0,35.4,28.2,15.0,0000.0,0006.74,0001.45,0000.46
2021-11-15 05:57:00,,0824.9,4.99,0.00,26.4,25.4,00.0,35.4,28.2,15.0,0000.0,0006.52,0001.43,0000.48
2021-11-15 05:58:00,,0825.0,5.01,0.00,26.4,25.4,00.0,35.4,28.2,15.0,0000.0,0006.37,0001.38,0000.48
2021-11-15 05:59:00,,0824.9,5.01,0.00,26.4,25.4,00.0,35.4,28.2,15.0,0000.0,0006.66,0001.43,0000.48
